Location: Harburg
(48.7667°N, 10.6667°E)
Time: 08:34:49
(UTC+00:00)

Exosat Rocket - Pass Details

Date: 18 September 2020
Orbit: 761 x 2514 km, 72.3° (Epoch: 24 October)

Event Time Altitude Azimuth Distance (km) Brightness Sun altitude
Rises 18:58:45 0° 180° (S) 3,707 6.8 -16.2°
Reaches altitude 10° 19:01:39 10° 172° (S) 2,586 5.9 -16.6°
Maximum altitude 19:06:45 36° 107° (ESE) 1,238 4.0 -17.4°
Drops below altitude 10° 19:11:19 10° 41° (NE) 2,304 5.8 -18.1°
Sets 19:13:45 0° 33° (NNE) 3,249 6.7 -18.5°
